Regional Weather Roundup
Issued by NWS State College, PA

Home | Current Version | Previous Version | Graphics & Text | Print | Product List | Glossary Off
Versions: 1 2 3 4 5 6 7 8 9 10 11 12 13 14 15 16 17 18 19 20 21 22 23 24 25 26 27 28 29 30 31 32 33 34 35 36 37 38 39 40 41 42 43 44 45 46 47 48 49 50

000
ASUS41 KCTP 230410
RWRCTP

REGIONAL WEATHER ROUNDUP
NATIONAL WEATHER SERVICE STATE COLLEGE PA
1200 AM EDT SAT MAY 23 2015

Note: "fair" indicates few or no clouds below 12,000 feet with no
significant weather and/or obstructions to visibility.

* = STATION THAT DOES NOT REPORT PRECIPITATION /E.G. RAIN...SNOW...ETC/
    THUNDER OR FOG.

PAZ002>004-007>009-013>016-020>023-029>032-230500-
WESTERN PENNSYLVANIA

CITY           SKY/WX    TMP DP  RH WIND       PRES   REMARKS
ERIE           CLEAR     42  33  70 CALM      30.32R
MEADVILLE      FAIR      45  23  42 SW3       30.31R
FRANKLIN*      FAIR      36  23  60 SW5       30.33R
NEW CASTLE     FAIR      38  32  79 CALM      30.35R
BEAVER COUNTY  NOT AVBL
BUTLER*        CLEAR     39  27  60 CALM      30.34S
PITTSBURGH INT PTCLDY    48  29  47 CALM      30.33R
PITTSBURGH     CLEAR     49  20  31 NE3       30.33R
INDIANA*       CLEAR     41  32  70 CALM      30.35F
LATROBE        CLEAR     45  28  53 CALM      30.35S
WASHINGTON CO* CLEAR     46  30  53 CALM      30.34S
$$

PAZ004>006-010>012-017>019-024>028-033>037-041-042-045-046-049>053-230500-
CENTRAL PENNSYLVANIA

CITY           SKY/WX    TMP DP  RH WIND       PRES   REMARKS
BRADFORD       CLEAR     33  22  63 CALM      30.27R
DUBOIS         CLEAR     38  23  55 W5        30.29R
CLEARFIELD     CLEAR     44  23  43 SW6       30.30R
JOHNSTOWN      CLEAR     44  17  33 NW14      30.30R
ALTOONA        CLEAR     49  25  39 NW12G20   30.31R
STATE COLLEGE  CLEAR     48  25  40 NW8       30.29R
WILLIAMSPORT   CLEAR     52  22  30 W10       30.24R
SELINSGROVE    CLEAR     54  31  41 NW10G18   30.26R
FT INDIANTOWN  CLEAR     58  29  32 W10       30.23R
CAPITAL CITY   CLEAR     58  27  30 W6        30.25R
HARRISBURG     CLEAR     59  27  29 NW14      30.24R
YORK           CLEAR     56  28  34 W6        30.25R
$$

PAZ038>040-043-044-047-048-054-055-060>062-067>071-230500-
EASTERN PENNSYLVANIA

CITY           SKY/WX    TMP DP  RH WIND       PRES   REMARKS
SCRANTON       CLEAR     51  28  41 N10       30.23R
MOUNT POCONO   CLEAR     47  32  56 NW12G22   30.18R
ALLENTOWN      CLEAR     56  33  42 NW6       30.18R
QUAKERTOWN*    CLEAR     57  34  41 NW6       30.19R
READING        FAIR      57  27  31 NW9       30.20R
LANCASTER      CLEAR     55  27  34 NW9       30.22R
COATESVILLE    CLEAR     57  25  28 NW12      30.21R
POTTSTOWN      CLEAR     57  25  29 NW3       30.21R
BLUE BELL      CLEAR     61  34  36 CALM      30.18R
DOYLESTOWN     CLEAR     56  32  40 N6        30.18R
WILLOW GROVE   NOT AVBL
NORTH PHILA    CLEAR     62  32  32 N10       30.19R
PHILADELPHIA   CLEAR     66  21  18 NW12      30.18R
$$


USA.gov is the U.S. government's official web portal to all federal, state and local government web resources and services.